Hourly Data Report for September 08, 2010

IQALUIT CLIMATE
NUNAVUT

63°44'50.000" N
68°32'40.000" W
33.50 m
2402592
71321
XFB

Download Data

Hourly Data (September 2010)
Hourly Data Report for September 8, 2010
TIME
LST
Temp Definition
°C
Dew Point Definition
°C
Rel Hum Definition
%
Precip. Amount Definition
mm

Wind Dir Definition
10's deg

Wind Spd Definition
km/h
Visibility Definition
km
Stn Press Definition
kPa
Hmdx Definition


Wind Chill Definition


Weather Definition


00:00 5.9 2.9 81   35 7   101.60     LegendNANA
01:00 3.8 2.0 88   35 7   101.57     LegendNANA
02:00 3.9 1.2 83   33 6   101.54     LegendNANA
03:00 4.3 1.3 81   31 9   101.50     LegendNANA
04:00 4.1 1.1 81   36 2   101.49     LegendNANA
05:00 3.3 1.6 89   16 4   101.47     LegendNANA
06:00 3.9 2.1 88   16 2   101.44     LegendNANA
07:00 7.4 2.8 73   19 2   101.40     LegendNANA
08:00 10.6 3.8 63   32 7   101.35     LegendNANA
09:00 11.8 3.9 58   27 13   101.32     LegendNANA
10:00 11.7 4.7 62   32 15   101.27     LegendNANA
11:00 11.1 5.1 66   34 22   101.25     LegendNANA
12:00 11.9 5.6 65   34 19   101.23     LegendNANA
13:00 11.3 5.1 66   34 19   101.19     LegendNANA
14:00 11.6 4.5 62   34 20   101.15     LegendNANA
15:00 11.5 4.5 62   34 19   101.12     LegendNANA
16:00 11.7 3.5 57   33 15   101.11     LegendNANA
17:00 7.9 4.3 78   16 4   101.09     LegendNANA
18:00 7.4 4.6 82   16 2   101.07     LegendNANA
19:00 6.9 3.9 81   16 2   101.08     LegendNANA
20:00 7.9 4.0 76   29 15   101.09     LegendNANA
21:00 8.1 3.3 72   29 15   101.10     LegendNANA
22:00 7.2 4.4 82   32 15   101.12     LegendNANA
23:00 6.3 4.1 86   32 20   101.13     LegendNANA

Notes on Data Quality.

Legend

  • E = Estimated
  • M = Missing
  • NA = Not Available*
  • [empty] = Indicates an unobserved value
Date modified: